Station SHPF1 - SHP - Shell Point, FL Image indicating link to RSS feed of recent meteorological observations for station SHPF1


Conditions at SHPF1 as of
(8:54 pm EDT on 07/22/2024)
0054 GMT on 07/23/2024:
Note: This report is more than two hours old
     

Click on the graph icon in the table below to see a time series plot of the last five days of that observation.

5-day plot - Wind Direction Wind Direction (WDIR):NNW ( 340 deg true )
5-day plot - Wind Speed Wind Speed (WSPD): 1.9 kts
5-day plot - Wind Gust Wind Gust (GST): 4.1 kts
5-day plot - Atmospheric Pressure Atmospheric Pressure (PRES):30.01 in
5-day plot - Air Temperature Air Temperature (ATMP): 81.9 °F
5-day plot - Dew Point Dew Point (DEWP): 73.4 °F
5-day plot - Tide (above MLLW) Tide (above MLLW) (TIDE): 0.46 ft
5-day plot - Heat Index Heat Index (HEAT): 87.4 °F
5-day plot - Wind Speed at 10 Meters Wind Speed at 10 meters (WSPD10M): 1.9 kts
5-day plot - Wind Speed at 20 Meters Wind Speed at 20 meters (WSPD20M): 1.9 kts
5-day plot -  Wind Speed, Wind Gust and Atmospheric Pressure Combined plot of Wind Speed, Gust, and Air Pressure
Previous observations
TIME
(EDT)
5-day plot - Wind Direction
WDIR
 
5-day plot - Wind Speed
WSPD
kts
5-day plot - Wind Gust
GST
kts
5-day plot - Wave Height
WVHT
ft
5-day plot - Dominant Wave Period
DPD
sec
5-day plot - Average Wave Period
APD
sec
5-day plot - Mean Wave Direction
MWD
 
5-day plot - Atmospheric Pressure
PRES
in
5-day plot - Pressure Tendency
PTDY
in
5-day plot - Air Temperature
ATMP
°F
5-day plot - Water Temperature
WTMP
°F
5-day plot - Dew Point
DEWP
°F
5-day plot - Salinity
SAL
psu
5-day plot - Visibility
VIS
nmi
5-day plot - Tide (above MLLW)
TIDE
ft
2024-07-22 08:48 pm N 1.9 2.9----30.01- 82.0- 73.0-- 0.56
2024-07-22 08:42 pm- 0.0 1.0----30.01- 82.0- 72.7-- 0.62
2024-07-22 08:36 pm- 0.0 1.9----30.01- 82.0- 72.9-- 0.69
2024-07-22 08:30 pm- 0.0 0.0----30.00- 82.2- 72.5-- 0.75
2024-07-22 08:24 pm- 0.0 1.0----30.00- 82.6- 72.9-- 0.82
2024-07-22 08:18 pm N 1.9 4.1----30.00- 82.4- 72.3-- 0.92
2024-07-22 08:12 pm N 1.9 2.9----29.99- 83.1- 72.5-- 0.98
2024-07-22 08:06 pm N 2.9 4.1----29.99- 82.9- 72.5-- 1.08
2024-07-22 08:00 pm N 2.9 5.1----29.99-0.02 83.3- 72.7-- 1.15
2024-07-22 07:54 pm N 4.1 5.1----29.98- 83.3- 72.5-- 1.25
2024-07-22 07:48 pm N 2.9 5.1----29.98- 83.7- 72.7-- 1.31
2024-07-22 07:42 pm N 1.9 4.1----29.98- 84.0- 72.9-- 1.41
2024-07-22 07:36 pm N 2.9 5.1----29.98- 84.0- 73.0-- 1.51
2024-07-22 07:30 pmNNE 1.9 5.1----29.98- 83.8- 73.0-- 1.61
2024-07-22 07:24 pmNNE 4.1 6.0----29.98- 83.7- 72.5-- 1.71
2024-07-22 07:18 pm NE 1.9 7.0----29.98- 84.0- 73.0-- 1.80
2024-07-22 07:12 pm NE 2.9 6.0----29.98- 83.8- 72.9-- 1.90
2024-07-22 07:06 pmNNE 2.9 5.1----29.98- 83.1- 72.7-- 2.00
2024-07-22 07:00 pm NE 4.1 6.0----29.98-0.01 82.8- 72.7-- 2.10
2024-07-22 06:54 pm NE 2.9 5.1----29.98- 82.6- 73.2-- 2.20
2024-07-22 06:48 pm NE 2.9 4.1----29.98- 82.2- 73.2-- 2.30
2024-07-22 06:42 pmNNE 4.1 5.1----29.98- 81.9- 72.1-- 2.40
2024-07-22 06:36 pm N 2.9 5.1----29.98- 81.9- 72.3-- 2.49
2024-07-22 06:30 pm- 0.0 2.9----29.98- 82.0- 72.5-- 2.59
2024-07-22 06:24 pm- 0.0 0.0----29.98- 81.7- 72.3-- 2.69
2024-07-22 06:18 pm- 0.0 1.9----29.98- 81.3- 72.5-- 2.79
2024-07-22 06:12 pm N 2.9 4.1----29.98- 81.0- 72.1-- 2.89
2024-07-22 06:06 pm N 2.9 6.0----29.99- 80.8- 72.1-- 3.02
2024-07-22 06:00 pm N 4.1 6.0----29.99+0.00 81.0- 72.1-- 3.12
2024-07-22 05:54 pm N 2.9 5.1----29.99- 81.1- 72.3-- 3.22
2024-07-22 05:48 pm N 2.9 5.1----29.99- 80.8- 72.1-- 3.31
2024-07-22 05:42 pm N 1.9 5.1----29.99- 80.8- 72.7-- 3.38
2024-07-22 05:36 pm N 4.1 6.0----30.00- 80.6- 72.7-- 3.48
2024-07-22 05:30 pm N 5.1 8.0----30.00- 80.8- 72.9-- 3.58
2024-07-22 05:24 pm N 5.1 8.0----30.01- 80.4- 72.9-- 3.64
2024-07-22 05:18 pmNNW 5.1 9.9----30.01- 80.2- 72.9-- 3.71
2024-07-22 05:12 pmNNW 8.0 13.0----30.01- 80.8- 72.9-- 3.84
2024-07-22 05:06 pm N 8.0 12.0----30.01- 81.5- 73.6-- 3.87
2024-07-22 05:00 pmNNW 8.0 13.0----30.01+0.00 81.7- 74.1-- 3.94
2024-07-22 04:54 pmNNW 8.9 11.1----30.01- 82.0- 74.7-- 4.00
2024-07-22 04:48 pm NW 8.9 14.0----30.01- 82.6- 74.8-- 4.13
2024-07-22 04:42 pm NW 9.9 15.0----30.01- 83.5- 75.0-- 4.23
2024-07-22 04:36 pmWNW 11.1 17.1----30.01- 84.2- 74.7-- 4.36
2024-07-22 04:30 pm W 12.0 19.0----30.01- 84.4- 74.1-- 4.40
2024-07-22 04:24 pm W 15.9 21.0----30.00- 86.5- 74.8-- 4.40
2024-07-22 04:18 pmSSW 11.1 12.0----30.01- 88.2- 74.5-- 4.46
2024-07-22 04:12 pmSSW 12.0 13.0----30.00- 88.0- 74.3-- 4.49
2024-07-22 04:06 pmSSW 12.0 15.0----29.99- 87.8- 74.8-- 4.53
2024-07-22 04:00 pm S 8.9 13.0----29.99-0.04 88.5- 75.9-- 4.56
2024-07-22 03:54 pm S 9.9 13.0----29.99- 88.7- 76.3-- 4.56
2024-07-22 03:48 pm S 8.9 12.0----30.00- 88.9- 75.6-- 4.59
2024-07-22 03:42 pm S 8.9 12.0----29.99- 88.7- 75.6-- 4.63
2024-07-22 03:36 pm S 8.9 12.0----29.99- 88.9- 75.6-- 4.63
2024-07-22 03:30 pm S 8.9 12.0----29.99- 89.1- 75.4-- 4.59
2024-07-22 03:24 pm S 9.9 13.0----29.98- 89.2- 74.5-- 4.59
2024-07-22 03:18 pm S 9.9 13.0----29.98- 89.6- 75.0-- 4.63
2024-07-22 03:12 pmSSE 9.9 13.0----29.99- 90.0- 75.2-- 4.63
2024-07-22 03:06 pm S 9.9 12.0----29.99- 90.0- 75.0-- 4.59
2024-07-22 03:00 pm S 9.9 12.0----29.99-0.04 90.1- 74.8-- 4.59
2024-07-22 02:54 pm S 8.9 13.0----29.99- 90.0- 75.0-- 4.53
2024-07-22 02:48 pm S 8.0 11.1----29.99- 89.8- 74.5-- 4.49
2024-07-22 02:42 pm S 8.9 11.1----30.00- 89.8- 73.9-- 4.49
2024-07-22 02:36 pm S 8.9 11.1----30.00- 90.1- 74.7-- 4.46
2024-07-22 02:30 pm S 8.0 9.9----30.01- 90.1- 74.7-- 4.43
2024-07-22 02:24 pmSSE 7.0 8.9----30.01- 90.0- 74.3-- 4.36
2024-07-22 02:18 pm S 6.0 8.9----30.01- 89.8- 74.1-- 4.33
2024-07-22 02:12 pm S 6.0 8.9----30.01- 90.1- 74.5-- 4.27
2024-07-22 02:06 pm S 6.0 8.0----30.01- 90.1- 73.9-- 4.23
2024-07-22 02:00 pmSSE 6.0 8.0----30.00-0.03 90.0- 73.9-- 4.20
2024-07-22 01:54 pmSSE 6.0 8.0----30.01- 90.1- 73.9-- 4.17
2024-07-22 01:48 pm S 4.1 7.0----30.01- 90.5- 73.2-- 4.07
2024-07-22 01:42 pm S 2.9 4.1----30.01- 90.3- 73.6-- 4.04
2024-07-22 01:36 pmSSE 2.9 4.1----30.01- 89.8- 73.0-- 4.04
2024-07-22 01:30 pm SE 4.1 6.0----30.02- 89.4- 73.2-- 3.97
2024-07-22 01:24 pm SE 5.1 7.0----30.02- 89.8- 74.1-- 3.94
2024-07-22 01:18 pm SE 4.1 5.1----30.03- 90.0- 73.6-- 3.87
2024-07-22 01:12 pm SE 4.1 6.0----30.03- 89.4- 73.8-- 3.77
2024-07-22 01:06 pmSSE 4.1 6.0----30.03- 89.6- 73.8-- 3.71
2024-07-22 01:00 pmSSE 5.1 6.0----30.03- 89.6- 74.1-- 3.64
2024-07-22 12:54 pmSSE 5.1 7.0----30.03- 89.8- 74.1-- 3.58
2024-07-22 12:48 pm S 4.1 6.0----30.03- 89.6- 73.9-- 3.51
2024-07-22 12:42 pm S 2.9 5.1----30.03- 89.4- 74.1-- 3.48
2024-07-22 12:36 pm S 2.9 5.1----30.03- 89.2- 73.9-- 3.41
2024-07-22 12:30 pm S 2.9 5.1----30.03- 89.6- 75.2-- 3.38
2024-07-22 12:24 pmSSW 2.9 5.1----30.03- 88.7- 73.6-- 3.31
2024-07-22 12:18 pm SW 2.9 4.1----30.03- 88.9- 73.6-- 3.28
2024-07-22 12:12 pm SW 1.9 4.1----30.03- 88.3- 72.7-- 3.18
2024-07-22 12:06 pm SW 2.9 4.1----30.03- 88.3- 73.9-- 3.08
2024-07-22 12:00 pmSSW 2.9 4.1----30.03- 87.8- 73.6-- 3.02
2024-07-22 11:54 am SW 2.9 4.1----30.03- 87.6- 73.2-- 2.99
2024-07-22 11:48 amSSW 2.9 4.1----30.03- 87.8- 73.4-- 2.92
2024-07-22 11:42 amSSW 2.9 2.9----30.03- 87.8- 73.2-- 2.85
2024-07-22 11:36 am SW 2.9 4.1----30.03- 88.0- 73.0-- 2.76
2024-07-22 11:30 amWSW 1.9 2.9----30.03- 87.8- 73.0-- 2.69
2024-07-22 11:24 amWSW 1.9 4.1----30.03- 87.3- 72.9-- 2.62
2024-07-22 11:18 am SW 1.9 2.9----30.03- 87.4- 73.6-- 2.53
2024-07-22 11:12 amWSW 1.9 4.1----30.03- 87.4- 72.9-- 2.43
2024-07-22 11:06 amWSW 2.9 5.1----30.04- 86.9- 73.6-- 2.40
2024-07-22 11:00 am W 1.9 4.1----30.04- 87.1- 73.4-- 2.40
2024-07-22 10:54 am W 2.9 4.1----30.04- 86.9- 73.8-- 2.40
2024-07-22 10:48 am W 1.9 4.1----30.04- 86.5- 73.9-- 2.36
2024-07-22 10:42 amWNW 2.9 5.1----30.04- 86.4- 73.6-- 2.26
2024-07-22 10:36 amWNW 2.9 5.1----30.04- 86.4- 74.7-- 2.20
2024-07-22 10:30 amWNW 4.1 6.0----30.04- 86.0- 74.5-- 2.10
2024-07-22 10:24 amWNW 2.9 4.1----30.04- 86.2- 74.1-- 2.03
2024-07-22 10:18 am W 2.9 5.1----30.04- 85.6- 74.1-- 2.00
2024-07-22 05:54 amWNW 2.9 4.1----29.98- 79.0- 76.8-- 3.25
2024-07-22 05:48 am NW 4.1 6.0----29.98- 79.0- 76.8-- 3.31
2024-07-22 05:42 am NW 2.9 4.1----29.98- 79.2- 77.0-- 3.41
2024-07-22 05:36 amWNW 2.9 4.1----29.97- 79.0- 76.8-- 3.41
2024-07-22 05:30 amWNW 1.9 4.1----29.98- 78.8- 76.6-- 3.41
2024-07-22 05:24 am NW 1.0 1.9----29.97- 78.8- 76.6-- 3.48
2024-07-22 05:18 am- 0.0 1.0----29.97- 78.6- 76.5-- 3.51
2024-07-22 05:12 am- 0.0 1.0----29.97- 78.8- 76.5-- 3.58
2024-07-22 05:06 am- 0.0 1.0----29.97- 78.6- 76.3-- 3.61
2024-07-22 05:00 am- 0.0 1.9----29.98- 79.0- 76.6-- 3.61
2024-07-22 04:54 amNNW 1.0 1.9----29.98- 78.8- 76.6-- 3.64
2024-07-22 04:48 am- 0.0 1.9----29.98- 79.0- 76.6-- 3.64
2024-07-22 04:42 am NW 1.9 2.9----29.98- 79.2- 76.8-- 3.67
2024-07-22 04:36 am NW 1.9 2.9----29.98- 79.5- 77.4-- 3.74
2024-07-22 04:30 am- 0.0 1.0----29.98- 79.2- 76.8-- 3.77
2024-07-22 04:24 am- 0.0 1.9----29.98- 79.2- 76.6-- 3.77
2024-07-22 04:18 amNNW 1.9 4.1----29.98- 79.2- 76.6-- 3.81
2024-07-22 04:12 am NE 1.9 1.9----29.98- 79.3- 76.8-- 3.81
2024-07-22 04:06 amNNE 1.0 1.9----29.98- 79.3- 76.6-- 3.77
2024-07-22 04:00 am- 0.0 1.0----29.99-0.06 79.5- 76.8-- 3.74
2024-07-22 03:54 am N 2.9 4.1----29.99- 79.5- 76.8-- 3.77
2024-07-22 03:48 am N 2.9 4.1----29.99- 80.2- 77.5-- 3.74
2024-07-22 03:42 amNNE 1.9 2.9----29.99- 80.4- 77.9-- 3.64
2024-07-22 03:36 am NE 1.9 2.9----29.99- 80.1- 77.5-- 3.58
2024-07-22 03:30 am NE 1.9 2.9----29.99- 79.9- 77.2-- 3.51
2024-07-22 03:24 am NE 1.9 1.9----29.99- 79.7- 77.0-- 3.44
2024-07-22 03:18 am NE 1.9 2.9----30.00- 79.5- 76.6-- 3.44
2024-07-22 03:12 am NE 1.9 1.9----30.00- 79.3- 76.3-- 3.38
2024-07-22 03:06 am NE 1.9 2.9----30.00- 79.2- 75.9-- 3.31
2024-07-22 03:00 amNNE 1.9 4.1----30.00-0.05 79.3- 76.3-- 3.25
2024-07-22 02:54 amNNE 1.9 4.1----30.00- 79.5- 76.3-- 3.18
2024-07-22 02:48 am N 1.9 2.9------ 79.9- 76.6-- 3.08
2024-07-22 02:42 am N 1.9 2.9----------- 3.02
2024-07-22 02:36 amNNE 1.9 1.9----------- 2.99
2024-07-22 02:30 amNNE 1.9 2.9----------- 2.92
2024-07-22 02:24 am NE 1.9 4.1----------- 2.85
2024-07-22 02:18 amNNE 2.9 5.1----------- 2.79
2024-07-22 01:54 am N 2.9 4.1----30.02- 79.5- 75.7-- 2.43
2024-07-22 01:48 am N 2.9 5.1----30.02- 79.7- 76.1-- 2.33
2024-07-22 01:42 am N 4.1 5.1----30.03- 80.1- 76.5-- 2.23
2024-07-22 01:36 am N 4.1 5.1----30.03- 79.9- 76.1-- 2.13
2024-07-22 01:30 am N 2.9 4.1----30.03- 80.2- 76.5-- 2.00
2024-07-22 01:24 am N 1.9 2.9----30.04- 80.4- 76.5-- 1.90
2024-07-22 01:18 am N 2.9 4.1----30.03- 80.6- 76.6-- 1.80
2024-07-22 01:12 amNNE 1.9 2.9----30.03- 80.4- 76.3-- 1.71
2024-07-22 01:06 amNNE 1.9 2.9----30.04- 80.6- 76.3-- 1.61
2024-07-22 01:00 amNNE 2.9 4.1----30.04-0.01 80.4- 76.3-- 1.51
2024-07-22 12:54 am N 2.9 2.9----30.04- 80.8- 77.0-- 1.38
2024-07-22 12:48 am N 1.9 2.9----30.05- 80.4- 76.6-- 1.25
2024-07-22 12:42 amNNE 1.9 2.9----30.05- 80.2- 76.5-- 1.15
2024-07-22 12:36 am N 1.9 2.9----30.05- 80.6- 76.5-- 1.02
2024-07-22 12:30 am- 0.0 1.0----30.05- 80.8- 76.5-- 0.92
2024-07-22 12:24 am NE 1.0 4.1----30.06- 80.6- 76.3-- 0.82
2024-07-22 12:18 amNNE 2.9 4.1----30.06- 80.6- 76.3-- 0.72
2024-07-22 12:12 am N 2.9 5.1----30.06- 80.8- 76.5-- 0.62
2024-07-22 12:06 amNNE 2.9 5.1----30.06- 80.8- 76.5-- 0.52
2024-07-22 12:00 am E 1.9 4.1----30.05+0.03 80.6- 75.9-- 0.46
2024-07-21 11:54 pmENE 1.0 2.9----30.05- 80.8- 75.9-- 0.36
2024-07-21 11:48 pmNNE 2.9 5.1----30.06- 81.1- 76.1-- 0.30
2024-07-21 11:42 pm N 4.1 6.0----30.06- 81.5- 76.1-- 0.23
2024-07-21 11:36 pmNNW 4.1 7.0----30.06- 81.5- 76.6-- 0.13
2024-07-21 11:30 pm NW 6.0 8.9----30.06- 81.0- 76.8-- 0.07
2024-07-21 11:24 pmNNE 1.9 7.0----30.06- 81.5- 77.5-- 0.03
2024-07-21 11:18 pmNNE 1.9 4.1----30.06- 81.3- 77.4---0.03
2024-07-21 11:12 pmNNE 2.9 4.1----30.06- 81.5- 77.2---0.07
2024-07-21 11:06 pm NE 1.9 4.1----30.06- 81.5- 77.2---0.10
2024-07-21 11:00 pmNNE 2.9 4.1----30.06+0.08 82.0- 77.5---0.07
2024-07-21 10:54 pm NE 1.9 4.1----30.06- 82.0- 77.4---0.07